CAPE
0 0 0 0 0 0 0 0 0 0 0 0 0 0 0 0 0 0 0 0 0 0 0 0 0 0 0 0 0 0 0 0 0 0 0 0 0 22 78 97 22 10 28 6
0 0 0 0 0 0 0 0 0 0 0 0 0 0 0 0 0 0 0 0 0 0 0 0 0 0 0 0 0 0 0 0 0 0 0 0 0 4 19 2 15 5 5 6
0 0 0 0 0 0 0 0 0 0 0 0 0 0 0 0 0 0 0 0 0 0 0 0 0 0 0 0 0 0 0 0 0 0 0 0 0 0 12 18 28 0 4 2
0 0 0 0 0 0 0 0 0 0 0 0 0 0 0 0 0 0 0 0 0 0 0 0 0 0 0 0 0 5 12 0 0 0 0 0 0 0 13 43 39 69 59 81
0 0 0 0 0 0 0 0 0 0 0 0 0 0 0 0 0 0 0 0 0 0 0 0 0 0 0 0 0 0 0 1 7 0 0 2 1 1 0 24 5 0 0 0
0 0 0 0 0 0 0 0 0 0 0 0 0 0 1 0 0 0 0 0 0 0 0 0 0 0 0 0 0 0 0 10 1 45 64 26 27 50 0 0 0 0 3 43
0 0 0 0 0 0 0 0 0 0 0 0 0 0 0 0 0 0 0 0 0 0 0 0 0 0 0 0 0 0 0 0 0 13 81 91 68 100 68 53 17 0 0 23
0 0 0 0 0 0 0 0 0 0 0 0 0 2 0 0 0 0 0 0 0 0 0 0 0 0 0 0 0 0 0 0 0 0 4 77 117 118 76 106 84 52 49 0
0 0 0 0 0 0 0 0 0 0 0 0 0 0 0 0 0 0 0 0 0 0 0 0 0 0 0 0 0 0 0 0 0 0 0 0 1 0 37 72 37 30 16 6
0 0 0 0 0 0 0 0 0 0 0 0 0 0 0 0 0 0 0 0 0 0 0 0 0 0 0 0 0 0 0 0 0 4 1 0 0 5 24 9 6 14 2 0
0 0 0 0 0 0 0 0 0 0 0 0 0 0 0 0 0 0 0 0 0 0 0 0 0 0 0 0 0 0 0 0 0 0 0 0 0 0 0 0 0 6 1 0
0 0 0 0 0 0 0 0 0 0 0 0 0 0 0 0 0 0 0 0 0 0 0 0 0 0 0 0 0 0 0 0 0 0 0 0 0 0 0 0 0 0 0 0
0 0 0 0 0 0 0 0 0 0 0 0 0 0 0 0 0 0 0 0 0 0 0 0 0 0 0 0 0 0 0 0 0 0 0 0 0 0 0 0 4 2 2 3
0 0 0 0 0 0 0 0 0 0 0 0 0 0 2 0 0 0 0 0 0 0 0 0 0 0 0 0 0 0 0 0 0 0 0 0 0 0 0 0 0 0 0 0
0 0 0 0 0 0 0 0 0 0 0 0 0 0 0 0 0 0 0 0 0 0 0 0 0 0 0 0 0 0 0 0 0 0 0 0 0 0 0 0 0 0 0 0
0 0 0 0 0 0 0 0 0 0 0 0 0 0 0 0 0 0 0 0 0 0 0 0 0 0 0 0 0 0 0 0 0 0 0 0 0 0 0 0 0 0 0 0
0 0 0 0 0 0 0 0 0 0 0 0 0 0 0 0 0 0 0 0 0 0 0 0 0 0 0 0 0 0 0 0 0 0 0 0 0 0 0 0 0 0 0 0
0 0 0 0 0 0 0 0 0 0 0 0 0 0 0 0 0 0 0 0 0 0 0 0 0 0 0 0 0 0 0 0 0 1 1 0 0 0 0 1 1 0 0 0
0 0 0 0 0 0 0 0 0 0 0 0 0 0 0 0 0 0 0 0 0 0 0 0 0 0 0 0 0 0 0 1 1 1 1 1 1 2 1 1 1 0 0 0
0 0 0 0 0 0 0 0 0 0 0 0 0 0 0 0 0 0 0 0 0 0 0 0 0 0 0 0 0 0 1 1 1 1 1 1 1 1 0 0 0 0 0 0
0 0 0 0 0 0 0 0 0 0 0 0 0 0 0 0 0 0 0 0 0 0 0 0 0 0 0 0 0 2 1 2 1 1 1 2 1 2 1 1 0 0 0 1
0 0 0 0 0 0 0 0 0 0 0 0 0 0 0 0 0 0 0 0 0 0 0 0 0 0 0 0 1 2 1 0 0 1 2 2 1 1 2 3 2 1 1 1
0 0 0 0 0 0 0 0 0 0 0 0 0 0 0 0 0 0 0 0 0 0 0 0 0 0 0 0 0 1 1 1 1 1 1 0 0 1 2 1 1 1 0 1
0 0 0 0 0 0 0 0 0 0 0 0 0 0 0 0 0 0 0 0 0 0 0 0 0 0 0 0 0 0 0 0 1 2 1 1 2 0 1 1 1 0 2 2
0 0 0 0 0 0 0 0 0 0 0 0 0 0 0 0 0 0 0 0 0 0 0 0 0 0 1 0 0 0 1 1 1 0 1 1 0 0 0 0 0 0 1 2
0 0 0 0 0 0 0 0 0 0 0 0 0 0 0 0 0 0 0 0 0 0 0 0 0 0 0 0 1 0 1 1 1 0 1 2 0 0 0 0 0 0 0 0
CIN
-0 -0 -0 -0 -0 -0 -0 -0 -0 -0 -0 -0 -0 -0 -0 -0 -0 -0 -0 -0 -0 -0 -0 -0 -0 -0 -0 -0 -0 -0 -0 -0 -0 -0 -0 -0 -0 -55 -50 -62 -56 -41 -57 -73
-0 -0 -0 -0 -0 -0 -0 -0 -0 -0 -0 -0 -0 -0 -0 -0 -0 -0 -0 -0 -0 -0 -0 -0 -0 -0 -0 -0 -0 -0 -0 -0 -0 -0 -0 -0 -0 -146 -113 -172 -105 -82 -128 -134
-0 -0 -0 -0 -0 -0 -0 -0 -0 -0 -0 -0 -0 -0 -0 -0 -0 -0 -0 -0 -0 -0 -0 -0 -0 -0 -0 -0 -0 -0 -0 -0 -6 -0 -0 -0 -0 -0 -102 -120 -80 -0 -94 -46
-0 -0 -0 -0 -0 -0 -0 -0 -0 -0 -0 -0 -0 -0 -0 -0 -0 -0 -0 -0 -0 -0 -0 -0 -0 -0 -0 -0 -0 -43 -62 -0 -0 -0 -0 -0 -0 -0 -131 -147 -137 -86 -35 -30
-0 -0 -0 -0 -0 -0 -0 -0 -0 -0 -0 -0 -0 -0 -0 -0 -0 -0 -0 -0 -0 -0 -0 -0 -0 -0 -0 -0 -0 -0 -0 -41 -76 -0 -0 -68 -18 -5 -4 -97 -134 -0 -0 -6
-0 -0 -0 -0 -0 -0 -0 -0 -0 -0 -0 -0 -0 -0 -35 -14 -0 -0 -0 -0 -0 -0 -0 -0 -0 -0 -0 -0 -0 -0 -0 -47 -67 -44 -44 -39 -27 -24 -0 -0 -0 -0 -43 -49
-0 -0 -0 -0 -0 -0 -0 -0 -0 -0 -0 -0 -0 -0 -0 -0 -0 -0 -0 -0 -0 -0 -0 -0 -0 -0 -0 -0 -0 -0 -0 -0 -0 -31 -32 -12 -17 -20 -26 -27 -55 -0 -0 -45
-0 -0 -0 -0 -0 -0 -0 -0 -0 -0 -0 -0 -0 -53 -0 -0 -0 -0 -0 -0 -0 -0 -0 -0 -0 -0 -0 -0 -0 -0 -0 -0 -0 -0 -106 -72 -42 -22 -24 -15 -17 -21 -33 -2
-0 -0 -0 -0 -0 -0 -0 -0 -0 -0 -0 -0 -0 -0 -0 -0 -0 -0 -0 -0 -0 -0 -0 -0 -0 -0 -0 -0 -0 -0 -0 -0 -0 -0 -0 -0 -119 -14 -96 -65 -58 -47 -75 -87
-0 -0 -0 -0 -0 -0 -0 -0 -0 -0 -0 -0 -0 -0 -0 -0 -0 -0 -0 -0 -0 -0 -0 -0 -0 -0 -0 -0 -0 -0 -0 -35 -71 -154 -118 -0 -0 -160 -106 -80 -66 -47 -34 -0
-0 -0 -0 -0 -0 -0 -0 -0 -0 -0 -0 -0 -0 -0 -0 -0 -0 -0 -0 -0 -0 -0 -0 -0 -0 -0 -0 -0 -0 -0 -0 -0 -0 -0 -0 -0 -0 -0 -0 -0 -0 -8 -15 -0
-0 -0 -0 -0 -0 -0 -0 -0 -0 -0 -0 -0 -0 -0 -0 -0 -0 -0 -0 -0 -0 -0 -0 -0 -0 -0 -0 -0 -0 -0 -0 -0 -0 -0 -0 -0 -0 -0 -0 -0 -0 -0 -3 -2
-0 -0 -0 -0 -0 -0 -0 -0 -0 -0 -0 -0 -0 -0 -0 -0 -0 -0 -0 -0 -0 -0 -0 -0 -0 -0 -0 -0 -0 -0 -0 -0 -0 -0 -0 -0 -0 -0 -0 -0 -0 -2 -2 -9
-0 -0 -0 -0 -0 -0 -0 -0 -0 -0 -0 -0 -0 -0 -21 -0 -0 -0 -0 -0 -0 -0 -0 -0 -0 -0 -0 -0 -0 -0 -0 -0 -0 -0 -0 -0 -0 -0 -0 -1 -0 -1 -0 -0
-0 -0 -0 -0 -0 -0 -0 -0 -0 -0 -0 -0 -0 -0 -0 -0 -0 -0 -0 -0 -0 -0 -0 -0 -0 -0 -0 -0 -0 -0 -0 -0 -0 -0 -0 -0 -0 -0 -0 -0 -0 -0 -0 -0
-0 -0 -0 -0 -0 -0 -0 -0 -0 -0 -0 -0 -0 -0 -0 -0 -0 -0 -0 -0 -0 -0 -0 -0 -0 -0 -0 -0 -0 -0 -0 -0 -0 -0 -0 -0 -0 -0 -0 -0 -0 -0 -0 -0
-0 -0 -0 -0 -0 -0 -0 -0 -0 -0 -0 -0 -0 -0 -0 -0 -0 -0 -0 -0 -0 -0 -0 -0 -0 -0 -0 -0 -0 -0 -0 -0 -0 -0 -0 -0 -0 -0 -0 -0 -0 -0 -0 -0
-0 -0 -0 -0 -0 -0 -0 -0 -0 -0 -0 -0 -0 -0 -0 -0 -0 -0 -0 -0 -0 -0 -0 -0 -0 -0 -0 -0 -0 -0 -0 -0 -0 -0 -0 -0 -0 -0 -0 -0 -0 -0 -0 -7
-0 -0 -0 -0 -0 -0 -0 -0 -0 -0 -0 -0 -0 -0 -0 -0 -0 -0 -0 -0 -0 -0 -0 -0 -0 -0 -0 -0 -0 -0 -0 -0 -0 -0 -0 -0 -0 -0 -0 -0 -0 -0 -0 -0
-0 -0 -0 -0 -0 -0 -0 -0 -0 -0 -0 -0 -0 -0 -0 -0 -0 -0 -0 -0 -0 -0 -0 -0 -0 -0 -0 -0 -0 -0 -0 -0 -0 -0 -0 -0 -0 -0 -0 -0 -0 -0 -0 -0
-0 -0 -0 -0 -0 -0 -0 -0 -0 -0 -0 -0 -0 -0 -0 -0 -0 -0 -0 -0 -0 -0 -0 -0 -0 -0 -0 -0 -0 -0 -0 -0 -0 -0 -0 -0 -0 -0 -0 -0 -0 -0 -0 -0
-0 -0 -0 -0 -1 -0 -0 -0 -0 -0 -0 -0 -0 -0 -0 -0 -0 -0 -0 -0 -0 -0 -0 -0 -0 -0 -5 -0 -0 -0 -0 -0 -0 -0 -0 -0 -0 -0 -0 -0 -0 -0 -0 -0
-0 -0 -0 -0 -0 -0 -0 -0 -0 -0 -0 -0 -0 -0 -0 -0 -0 -0 -0 -0 -0 -0 -0 -0 -0 -1 -0 -0 -0 -0 -0 -0 -0 -0 -0 -0 -0 -0 -0 -0 -0 -0 -0 -0
-0 -0 -0 -0 -0 -0 -5 -0 -0 -0 -0 -0 -0 -0 -0 -0 -0 -0 -0 -0 -0 -0 -0 -0 -0 -0 -0 -0 -0 -0 -0 -0 -0 -0 -0 -0 -0 -0 -0 -0 -0 -0 -0 -0
-0 -0 -0 -0 -0 -0 -0 -0 -0 -0 -0 -0 -0 -0 -0 -0 -0 -0 -0 -0 -0 -0 -0 -0 -0 -0 -0 -0 -0 -0 -0 -0 -0 -0 -0 -0 -0 -0 -0 -0 -0 -0 -0 -0
-0 -0 -0 -0 -0 -0 -0 -0 -0 -0 -0 -0 -0 -0 -0 -0 -0 -0 -0 -0 -0 -0 -0 -0 -0 -0 -0 -0 -0 -0 -0 -1 -0 -0 -4 -1 -0 -0 -0 -0 -0 -0 -0 -0
Wind_Speed
11 7 16 19 19 20 22 22 24 24 8 7 10 8 7 8 8 8 11 14 17 20 21 24 26 27 28 27 27 29 30 31 30 31 31 31 30 29 28 27 24 22 21 22
5 17 21 22 22 18 22 23 25 24 21 17 14 18 11 5 8 6 9 13 14 17 20 23 26 27 27 28 29 28 28 28 27 28 29 29 31 31 30 30 29 30 30 27
17 17 21 22 23 21 21 25 27 27 30 24 27 26 19 9 6 9 11 12 13 16 19 23 25 27 27 28 28 27 27 27 27 28 29 32 32 34 34 35 32 34 32 31
16 18 21 22 22 24 20 28 28 29 29 25 30 33 35 6 6 8 10 10 11 14 18 23 27 28 28 28 25 24 24 27 28 30 33 33 34 37 38 40 39 37 35 36
14 20 19 22 22 22 19 28 21 17 16 24 27 21 24 5 6 8 6 8 12 16 20 25 28 26 27 32 30 25 26 29 29 32 34 35 36 34 37 37 40 44 44 42
13 16 16 18 23 25 18 21 25 14 9 13 14 15 14 13 9 7 13 14 16 18 22 24 28 29 28 31 32 32 33 31 33 32 31 32 32 31 33 36 40 43 43 41
27 17 15 17 21 25 30 26 24 20 12 12 27 21 15 15 17 15 16 17 21 23 28 30 35 36 36 34 34 34 37 38 36 35 32 30 31 30 32 36 36 37 39 37
23 22 18 17 20 21 19 18 17 17 18 18 24 16 13 14 15 16 17 18 23 27 32 36 38 38 36 33 32 33 37 35 33 35 37 36 36 34 33 28 29 30 32 36
23 18 17 16 19 19 20 19 15 16 15 15 15 16 14 13 16 21 26 27 27 32 35 37 38 36 30 33 33 36 34 34 35 35 36 37 38 38 38 35 33 31 34 35
19 22 17 14 16 16 15 18 18 16 18 16 16 22 16 19 23 26 26 28 32 36 39 39 38 37 35 34 34 34 35 37 38 37 39 39 38 39 35 32 31 29 31 34
20 18 17 22 16 13 13 17 15 15 15 16 17 17 15 20 22 23 28 32 36 38 39 38 35 36 32 34 35 36 39 42 42 45 44 42 41 40 38 36 34 32 32 36
19 18 18 15 18 16 16 21 19 15 16 19 20 18 21 25 23 26 29 32 36 39 38 39 38 37 37 37 38 41 43 44 44 43 41 38 36 38 39 41 40 36 34 32
19 17 20 24 14 16 16 17 15 12 14 15 17 19 20 23 24 30 33 37 40 41 41 41 42 38 38 40 41 44 44 43 42 40 42 43 43 43 44 41 37 37 36 35
16 16 16 16 13 26 20 11 13 11 14 15 15 19 25 27 31 33 37 39 39 40 42 43 41 38 39 41 42 45 43 42 42 42 42 42 40 39 38 36 37 37 36 36
15 18 17 15 19 21 22 24 18 14 18 20 21 22 26 28 31 34 37 40 39 42 42 41 40 40 41 43 43 41 40 42 42 40 40 40 39 38 36 35 36 36 36 35
12 19 20 19 22 14 12 13 14 22 21 19 24 22 27 28 33 39 39 40 42 42 41 41 39 40 40 39 39 38 40 43 40 38 38 37 35 37 36 35 32 35 36 34
14 16 21 22 26 33 26 18 19 17 21 21 26 25 28 33 34 36 37 40 41 41 41 40 40 39 38 37 37 39 40 40 37 36 35 33 33 33 33 34 34 32 35 35
15 18 16 21 27 21 18 18 17 18 20 22 24 26 27 30 32 34 35 39 40 40 41 39 38 37 37 34 33 38 39 36 33 30 27 25 23 18 13 19 32 34 33 33
9 14 17 19 17 15 23 17 17 19 21 21 23 26 28 30 31 31 37 37 39 37 38 36 35 34 33 32 33 34 33 27 24 17 14 13 11 10 9 12 17 21 25 27
8 9 15 22 22 21 19 15 16 17 22 21 25 27 29 32 37 33 35 37 36 38 37 38 36 34 31 31 31 28 24 18 16 15 11 11 9 7 6 6 11 14 17 19
14 13 13 15 18 17 17 15 16 20 22 21 24 26 27 30 29 31 35 38 37 38 37 36 36 33 30 29 28 23 16 14 13 11 10 10 10 8 6 6 7 9 10 13
10 14 15 14 15 17 11 14 17 16 17 21 23 24 27 28 30 33 36 36 38 38 38 36 36 32 29 28 24 15 10 9 10 10 10 9 9 10 7 6 3 4 6 11
21 18 16 13 15 12 8 13 13 15 18 19 21 24 26 29 32 35 36 36 37 36 37 35 32 32 29 24 19 10 8 7 8 9 9 10 10 10 7 6 2 2 4 7
21 17 15 14 16 14 10 9 10 13 16 20 22 24 27 30 33 33 33 36 35 35 37 33 32 31 22 19 15 8 7 8 6 7 9 9 11 11 9 6 7 1 4 6
21 25 25 20 17 15 19 15 13 16 18 21 22 25 27 29 29 31 34 35 33 34 34 31 32 24 16 13 12 7 8 7 6 7 7 8 10 9 7 11 8 10 3 11
23 22 23 22 24 16 16 13 13 16 18 20 22 25 25 26 28 30 34 31 32 35 31 29 26 20 13 11 11 6 10 8 6 6 6 7 8 11 8 10 7 7 18 20
Wind_Direction
177 78 2 354 354 346 343 343 330 327 359 351 351 5 345 352 4 4 14 9 6 6 11 9 4 2 2 1 357 356 355 352 350 346 342 337 332 331 327 328 319 318 318 315
137 1 346 346 343 358 344 342 339 320 331 338 348 337 340 337 345 20 20 12 15 13 8 6 2 360 358 357 354 353 354 354 352 349 345 339 331 327 325 319 320 314 313 314
355 0 347 347 349 352 347 344 330 323 311 319 323 315 328 327 349 5 10 8 8 1 359 359 357 354 352 349 349 347 346 348 347 347 340 333 327 320 316 314 311 313 308 307
359 3 355 349 357 346 349 337 329 324 323 320 315 309 307 327 332 348 352 359 11 2 0 358 356 351 350 348 348 347 351 348 344 342 335 330 325 317 313 304 303 305 306 307
2 351 358 354 356 357 353 339 345 343 339 329 319 326 328 357 337 343 9 11 356 356 355 351 350 350 352 354 356 358 348 342 340 336 331 326 322 318 316 308 301 299 300 301
8 5 6 0 352 354 3 0 349 354 360 352 348 339 351 349 347 3 2 4 8 2 356 354 358 357 352 348 345 342 340 339 336 333 330 327 324 321 319 314 304 300 300 299
327 348 4 6 353 353 345 352 355 1 13 359 329 346 0 17 16 16 6 2 351 348 348 350 345 340 338 341 344 340 337 334 334 332 330 329 325 322 320 314 308 303 301 301
347 347 3 16 2 1 7 12 6 1 357 349 341 357 5 12 9 8 1 355 348 345 345 343 343 342 340 339 340 339 335 331 332 333 330 328 326 322 320 318 315 308 304 300
342 350 6 12 4 7 1 4 19 3 1 359 1 9 5 11 6 351 344 343 345 344 345 346 346 345 345 341 342 343 346 345 341 337 333 331 329 327 327 323 319 314 308 303
350 339 347 9 8 13 18 6 1 5 358 360 351 350 358 355 350 346 347 348 346 344 345 346 346 349 354 357 355 352 348 342 337 334 330 327 325 323 322 320 317 316 312 306
355 351 351 343 358 2 8 5 2 359 356 354 350 352 6 356 352 356 350 345 345 347 347 350 353 350 353 351 350 346 341 337 333 329 327 325 323 323 321 321 322 319 313 307
355 353 347 348 343 1 356 346 346 348 346 342 342 340 345 349 359 360 354 351 348 347 349 350 350 349 348 347 343 340 337 336 334 333 332 332 329 324 321 317 315 316 313 311
351 354 348 346 359 357 356 355 358 354 346 339 336 338 341 346 353 351 349 347 345 347 348 346 345 346 347 344 341 339 338 337 337 336 331 327 323 319 316 316 315 313 311 308
355 349 349 346 344 334 342 354 346 343 337 331 326 328 341 348 348 348 346 346 347 347 346 344 347 348 347 345 343 340 340 340 338 335 333 331 329 326 323 319 315 311 309 308
4 350 349 345 334 331 332 330 336 331 332 332 339 343 350 352 351 349 347 347 348 347 348 350 350 350 348 345 344 344 344 344 342 340 338 335 331 328 325 321 316 311 307 305
6 351 351 348 338 342 249 332 335 335 335 343 344 345 351 351 348 345 347 348 347 349 351 352 352 351 351 351 352 352 349 348 347 345 343 339 337 331 327 324 322 314 304 302
355 351 347 343 334 318 326 337 343 348 354 352 343 347 350 347 349 349 350 351 351 352 353 353 353 354 355 356 356 353 351 351 352 351 350 348 343 339 333 328 322 319 304 295
345 347 350 342 337 340 349 353 353 346 352 354 351 354 356 353 351 351 354 353 353 355 354 354 355 358 358 359 360 357 355 357 359 360 360 0 358 354 348 347 303 295 291 279
1 360 356 350 345 336 332 348 344 343 348 358 356 356 354 352 353 356 354 356 356 358 357 357 360 359 0 2 1 1 2 6 5 360 357 352 335 317 290 266 261 260 263 263
345 351 350 345 341 342 351 357 355 354 341 358 355 353 354 355 351 355 359 359 360 359 359 357 359 360 4 4 4 5 7 7 8 6 346 337 331 328 311 277 259 256 249 246
331 335 335 340 340 347 356 358 357 342 344 355 355 356 357 357 356 357 358 357 359 359 358 360 2 4 6 6 7 7 8 15 6 1 352 346 347 346 316 284 266 252 241 238
327 334 339 342 337 336 11 1 349 356 357 353 355 360 358 357 359 358 357 359 359 359 358 2 3 5 7 7 10 10 4 354 347 343 340 338 339 352 334 304 277 236 224 248
314 325 332 340 342 1 2 355 357 356 354 358 1 1 360 1 359 358 359 2 1 2 0 5 9 10 11 17 25 10 339 331 335 333 340 345 354 10 0 311 317 118 194 221
323 335 328 333 339 349 1 357 357 358 3 2 1 3 4 1 359 1 5 2 4 5 3 10 12 12 19 27 27 6 317 306 331 336 341 351 31 1 34 43 70 255 232 191
314 318 323 326 335 342 340 347 359 358 358 357 4 4 3 1 4 6 4 6 9 7 9 15 15 20 25 24 25 344 310 303 314 321 335 1 32 20 25 58 72 78 339 105
310 314 315 318 326 329 337 350 354 352 354 360 1 0 4 7 8 6 6 12 9 6 14 19 23 31 35 36 37 354 310 302 309 315 325 344 38 55 49 75 67 68 80 349